YAHSAT 1A

Last updated on Jan. 25, 2020, 4:43 a.m. UTC

1 37393U 11016B   20024.53677753  .00000092  00000-0  00000-0 0  9996
2 37393   0.0183  68.5738 0002130 227.0334  73.4560  1.00270439 18980
UTC
Height (km)
Latitude
Longitude
Inclination
Orbital Period
UTC large
Height (km)
Speed (km/s)
/
Latitude / Longitude
Inclination (degrees)
Orbital Period (minutes)
Azimuth
Elevation
Range (km)
Doppler Factor
iOS Compass Heading
iOS Angle

Next 30 passes for location: Hong Kong

Rise time Rise Azimuth (degrees) Set time Set Azimuth (degrees) Duration Max altitude (degrees)

No matching passes for this satellites